STARLINK-1749 (46589 NORAD) Tracking and Keplerian Element Data

This shows tracking and keplerian element data for the satellite.

Feedback or suggestion? Click here.




ElementValue
Catalog46589
NameSTARLINK-1749
Epoch Orbit176
Epoch Day304.91667824
Epoch Year2020
RAAN321.8589
Inclination53.0001
Eccentricity0.0001288
Argument of Perigee60.4644
Mean Anonmoly233.609
Mean Motion15.62752384
Decay Rate-6.72E-06
L11 46589U 20070BK 20304.91667824 -.00000672 00000-0 -15086-5 0 9995
L22 46589 53.0001 321.8589 0001288 60.4644 233.6090 15.62752384 1762

Live tracking and technical data element details for STARLINK-1749 (NORAD 46589). STARLINK-1749 can be tracked NOW for your location showing map with azimuth and elevation plus other details from your city location.

Track the satellite on the map from your city or location and see movement details for azimuth, elevation, latitude, longitude, range, height, and movement on the map or in text.







IsCatalogInMostPopularTable: catalog: 46589, numindb: 5
Update: records affected: 1



GetName: 46589 STARLINK-1749

Hit Count: updated at: Sat, 31 Oct 2020 10:53:31 GMT